Location: Unspecified
(0.0000°N, 0.0000°E)
Time: 02:35:39
(UTC+00:00)

A-11 Canister half - All Passes

Search period start: 24 August 2016 00:00
Search period end: 03 September 2016 00:00
Orbit: 1517 x 1683 km, 47.2° (Epoch: 22 August)

Date Brightness Start Highest point End Pass type
(mag) Time Alt. Az. Time Alt. Az. Time Alt. Az.
24 Aug - 01:27:06 10° WSW 01:35:17 36° NW 01:43:38 10° NNE visible
24 Aug - 10:09:31 10° N 10:16:33 21° NE 10:23:33 10° E daylight
24 Aug - 12:11:32 10° NW 12:21:43 84° SW 12:31:48 10° SE daylight
24 Aug - 14:21:10 10° W 14:26:57 17° SW 14:32:42 10° S daylight
24 Aug - 22:59:06 10° SSW 23:07:44 43° SE 23:16:21 10° ENE night (unlit)
25 Aug - 01:04:00 10° WSW 01:12:23 39° NW 01:20:56 10° NNE visible
25 Aug - 09:47:01 10° N 09:53:34 19° NE 10:00:05 10° E daylight
25 Aug - 11:48:36 10° NW 11:58:47 90° WSW 12:08:53 10° SE daylight
25 Aug - 13:57:34 10° W 14:03:58 18° SW 14:10:18 10° S daylight
25 Aug - 22:36:23 10° SSW 22:44:50 39° SE 22:53:16 10° ENE night (unlit)
26 Aug - 00:40:56 10° WSW 00:49:29 43° NW 00:58:11 10° NNE night (unlit)
26 Aug - 09:24:35 10° N 09:30:34 17° NE 09:36:32 10° E daylight
26 Aug - 11:25:40 10° NW 11:35:51 84° NE 11:45:59 10° SE daylight
26 Aug - 13:34:04 10° W 13:40:58 20° SW 13:47:50 10° S daylight
26 Aug - 22:13:41 10° SSW 22:21:56 36° SE 22:30:09 10° ENE night (unlit)
27 Aug - 00:17:53 10° WSW 00:26:36 47° NW 00:35:26 10° NNE night (unlit)
27 Aug - 09:02:15 10° NNE 09:07:33 15° NE 09:12:51 10° ENE daylight
27 Aug - 11:02:46 10° NW 11:12:55 78° NE 11:23:02 10° SE daylight
27 Aug - 13:10:38 10° W 13:18:00 23° SW 13:25:20 10° S daylight
27 Aug - 21:51:00 10° SSW 21:59:02 33° SE 22:07:00 10° ENE night (unlit)
27 Aug - 23:54:51 10° WSW 00:03:43 51° NW 00:12:40 10° NNE night (unlit)
28 Aug - 08:40:03 10° NNE 08:44:32 14° NE 08:49:02 10° ENE daylight
28 Aug - 10:39:53 10° NNW 10:50:00 73° NE 11:00:04 10° SE daylight
28 Aug - 12:47:15 10° W 12:55:01 25° SW 13:02:46 10° S daylight
28 Aug - 21:28:21 10° S 21:36:08 30° SE 21:43:50 10° ENE visible
28 Aug - 23:31:51 10° SW 23:40:50 56° NW 23:49:52 10° NNE night (unlit)
29 Aug - 08:18:06 10° NNE 08:21:31 12° NE 08:24:56 10° ENE daylight
29 Aug - 10:17:01 10° NNW 10:27:04 67° NE 10:37:06 10° SE daylight
29 Aug - 12:23:56 10° WNW 12:32:03 27° SW 12:40:09 10° S daylight
29 Aug - 21:05:43 10° S 21:13:13 27° SE 21:20:38 10° ENE visible
29 Aug - 23:08:52 10° SW 23:17:57 61° NW 23:27:04 10° NNE night (unlit)
30 Aug - 07:56:47 10° NNE 07:58:29 10° NE 08:00:10 10° NE daylight
30 Aug - 09:54:11 10° NNW 10:04:08 62° NE 10:14:06 10° SE daylight
30 Aug - 12:00:40 10° WNW 12:09:05 30° SW 12:17:31 10° S daylight
30 Aug - 20:43:06 10° S 20:50:18 25° SE 20:57:24 10° E visible
30 Aug - 22:45:54 10° SW 22:55:04 66° NW 23:04:15 10° NNE night (unlit)
31 Aug - 00:58:51 10° NW 01:00:25 10° NW 01:02:01 10° NNW night (unlit)
31 Aug - 09:31:22 10° NNW 09:41:12 57° NE 09:51:05 10° SE daylight
31 Aug - 11:37:25 10° WNW 11:46:07 33° SW 11:54:51 10° S daylight
31 Aug - 20:20:32 10° S 20:27:22 22° SE 20:34:06 10° E visible
31 Aug - 22:22:57 10° SW 22:32:12 72° NW 22:41:25 10° NNE night (unlit)
01 Sep - 00:34:17 10° WNW 00:37:26 12° NW 00:40:37 10° NNW night (unlit)
01 Sep - 09:08:33 10° NNW 09:18:15 52° NE 09:28:02 10° SE daylight
01 Sep - 11:14:13 10° WNW 11:23:10 36° SW 11:32:08 10° SSE daylight
01 Sep - 19:58:00 10° S 20:04:25 20° SE 20:10:45 10° E visible
01 Sep - 22:00:01 10° SW 22:09:19 78° NW 22:18:35 10° NE visible
02 Sep - 00:10:20 10° WNW 00:14:27 14° NW 00:18:36 10° NNW night (unlit)
02 Sep - 08:45:46 10° NNW 08:55:19 48° NE 09:04:57 10° ESE daylight
02 Sep - 10:51:04 10° WNW 11:00:13 39° SW 11:09:25 10° SSE daylight
02 Sep - 19:35:31 10° S 19:41:28 18° SE 19:47:20 10° E visible
02 Sep - 21:37:06 10° SW 21:46:27 85° NW 21:55:43 10° NE visible
02 Sep - 23:46:37 10° WNW 23:51:29 15° NW 23:56:23 10° NNW night (unlit)
